[[{"header":{"parameterUnit":"m.s-1","parameterCategory":1,"la1":30.2991,"la2":30.254,"lo1":-89.0895,"lo2":-89.0444,"dy":0.0017,"dx":0.0017,"nx":28,"ny":28,"refTime":"2025-09-07T09:00:00:Z","depth":0,"parameterNumber":2,"parameterNumberName":"U-component_of_WINDS"},"data":[0,0,0,0,0,0,0,0,0,0,0,0,0,0,0,0,0,0,0,0,0,0,0,0,0,0,0,0,0,0,0,0,0,0,0,0,0,0,0,0,0,0,0,0,0,0,0,0,0,0,0,0,0,0,0,0,0,0,-3.3473,-3.3473,0,-3.3542,-3.3543,-3.3544,-3.3444,-3.344,-3.3437,-3.3433,-3.3506,-3.3511,-3.3516,0,0,0,0,0,0,0,0,0,0,0,0,0,-3.3254,-3.3259,-3.3473,-3.3473,-3.3474,-3.3542,-3.3543,-3.3544,-3.3444,-3.344,-3.3436,-3.3432,-3.3504,-3.3511,-3.3517,0,0,0,0,0,0,0,0,0,0,0,0,0,-3.3339,-3.326,-3.3472,-3.3433,-3.343,-3.3542,-3.3543,-3.3544,-3.3445,-3.344,-3.3435,-3.343,-3.3502,-3.351,-3.3518,-3.3672,0,0,-3.3542,-3.3545,0,0,0,0,0,0,0,0,-3.3334,-3.3347,-3.3438,-3.3436,-3.3433,-3.3479,-3.3492,-3.3587,-3.3447,-3.344,-3.3433,-3.3427,-3.3501,-3.3509,-3.3534,-3.3675,-3.3679,-3.3542,-3.3547,-3.355,-3.3553,0,0,0,0,0,0,0,-3.3328,-3.3343,-3.35,-3.3439,-3.3436,-3.3412,-3.3418,-3.351,-3.3499,-3.344,-3.3433,-3.3442,-3.3499,-3.3526,-3.3535,-3.368,-3.3542,-3.3549,-3.3554,-3.3557,-3.3951,-3.3957,0,0,0,0,0,0,-3.3327,-3.3339,-3.3498,-3.3502,-3.3369,-3.342,-3.3427,-3.3469,-3.3498,-3.3497,-3.3447,-3.3437,-3.3516,-3.3526,-3.3537,-3.372,-3.355,-3.3558,-3.3562,-3.3946,-3.3953,-3.3959,0,0,0,0,0,0,-3.3323,-3.3342,-3.3495,-3.3419,-3.3436,-3.3429,-3.3478,-3.3474,-3.3501,-3.3503,-3.3501,-3.3477,-3.3512,-3.3526,-3.3639,-3.3721,-3.3561,-3.3568,-3.3939,-3.3948,-3.3956,-3.4088,0,0,0,0,0,0,-3.3317,-3.3341,-3.34,-3.3421,-3.3441,-3.3597,-3.3483,-3.3479,-3.3514,-3.3503,-3.3531,-3.353,-3.3509,-3.3628,-3.3647,-3.3729,-3.3575,-3.3931,-3.3943,-3.3953,-3.4076,-3.41,-3.412,0,0,0,0,0,-3.331,-3.3435,-3.3404,-3.3423,-3.3514,-3.3602,-3.3613,-3.3585,-3.3521,-3.3581,-3.3582,-3.3529,-3.3708,-3.364,-3.3661,-3.3747,-3.3926,-3.3939,-3.3952,-3.4066,-3.4095,-3.412,0,0,0,0,0,0,-3.3425,-3.3437,-3.3402,-3.3538,-3.3569,-3.3584,-3.3658,-3.3617,-3.3667,-3.3655,-3.3618,-3.3625,-3.3747,-3.3757,-3.3681,-3.3897,-3.3807,-3.3825,-3.3887,-3.3914,-3.3936,-3.3932,-3.3581,0,0,0,0,0,-3.3466,-3.3536,-3.3542,-3.3661,-3.3679,-3.3666,-3.3703,-3.3679,-3.371,-3.3723,-3.3732,-3.3765,-3.3828,-3.3871,-3.393,-3.4076,-3.4081,-3.4145,-3.4167,-3.4185,-3.4202,-3.428,-3.4309,-3.4001,-3.4001,-3.4001,0,0,-3.3552,-3.3567,-3.3613,-3.3685,-3.3706,-3.378,-3.3678,-3.376,-3.3814,-3.3735,-3.3843,-3.3851,-3.3885,-3.4016,-3.4074,-3.4029,-3.4287,-3.4202,-3.4216,-3.4223,-3.4297,-3.4326,-3.4352,-3.401,-3.4009,-3.4007,0,0,-3.3746,-3.3764,-3.3866,-3.3889,-3.3922,-3.3913,-3.3937,-3.3958,-3.3961,-3.4068,-3.401,-3.4074,-3.4184,-3.421,-3.4238,-3.4441,-3.4395,-3.4461,-3.4578,-3.4654,-3.4679,-3.47,-3.4774,-3.4801,-3.4477,-3.4477,-3.4478,0,-3.3849,-3.3958,-3.3923,-3.401,-3.4043,-3.3973,-3.4076,-3.41,-3.4152,-3.4176,-3.4124,-3.4261,-3.4278,-3.4415,-3.4464,-3.4488,-3.4516,-3.4459,-3.4678,-3.4699,-3.4718,-3.4788,-3.4816,-3.4485,-3.4484,-3.4483,-3.4483,0,-3.4083,-3.4159,-3.4237,-3.4287,-3.4329,-3.4423,-3.4403,-3.4449,-3.4421,-3.4417,-3.4527,-3.4545,-3.4606,-3.4636,-3.4609,-3.4769,-3.474,-3.4684,-3.4592,-3.4756,-3.4821,-3.4848,-3.4497,-3.4494,-3.4491,-3.4489,0,0,-3.4355,-3.4384,-3.4414,-3.4436,-3.4466,-3.4525,-3.4615,-3.4674,-3.4715,-3.4752,-3.4828,-3.4921,-3.4869,-3.4901,-3.4876,-3.4943,-3.5104,-3.4879,-3.4879,-3.4922,-3.5282,-3.5326,-3.5357,-3.5072,-3.5077,-3.5081,-3.528,0,-3.455,-3.4707,-3.4678,-3.4831,-3.49,-3.4834,-3.4913,-3.4941,-3.4939,-3.4998,-3.4995,-3.5063,-3.4988,-3.5007,-3.507,-3.5071,-3.5176,-3.5056,-3.5144,-3.5147,-3.514,-3.5391,-3.5438,-3.5625,-3.5305,-3.5309,-3.5312,0,-3.48,-3.4846,-3.5006,-3.5025,-3.5053,-3.5125,-3.5176,-3.5233,-3.5263,-3.5256,-3.5291,-3.5253,-3.5343,-3.5249,-3.5373,-3.5292,-3.5325,-3.5331,-3.5337,-3.5346,-3.5242,-3.5409,-3.5683,-3.5712,-3.5352,-3.5348,-3.5346,0,-3.4985,-3.5086,-3.5195,-3.5215,-3.524,-3.5292,-3.5305,-3.5329,-3.5366,-3.5411,-3.5435,-3.549,-3.552,-3.5564,-3.5542,-3.5474,-3.567,-3.5573,-3.5668,-3.5669,-3.5715,-3.5713,-3.6001,-3.5733,-3.5733,-3.5732,-3.5731,0,-3.5207,-3.5308,-3.5278,-3.5345,-3.5456,-3.5421,-3.5531,-3.5536,-3.5558,-3.5625,-3.557,-3.5634,-3.56,-3.5662,-3.5644,-3.575,-3.5764,-3.5762,-3.5757,-3.5769,-3.5769,-3.5792,-3.5779,-3.5739,-3.5738,-3.5736,-3.5735,0,-3.5434,-3.5417,-3.5532,-3.5545,-3.5551,-3.5632,-3.5643,-3.5706,-3.5699,-3.5784,-3.5802,-3.5792,-3.5861,-3.5842,-3.5918,-3.5906,-3.6041,-3.6018,-3.6031,-3.6026,-3.6123,-3.6115,-3.6438,-3.6479,-3.6183,-3.6186,-3.6188,0,-3.5578,-3.5654,-3.5675,-3.5716,-3.5733,-3.5799,-3.5837,-3.5804,-3.5846,-3.5884,-3.5943,-3.6007,-3.6057,-3.6171,-3.617,-3.6227,-3.6207,-3.6316,-3.6215,-3.6225,-3.6211,-3.6208,-3.6215,-3.6337,-3.634,-3.6343,-3.6345,0,-3.5837,-3.5825,-3.5881,-3.5934,-3.598,-3.6021,-3.6056,-3.6093,-3.6063,-3.6112,-3.6182,-3.6221,-3.6297,-3.6362,-3.6414,-3.6427,-3.6383,-3.6376,-3.6402,-3.6416,-3.6421,-3.6421,-3.6088,-3.637,-3.6367,-3.6365,-3.6364,-3.6363,-3.6028,-3.6093,-3.6118,-3.6182,-3.6205,-3.6239,-3.6298,-3.6298,-3.6356,-3.6416,-3.6392,-3.6473,-3.65,-3.6565,-3.6584,-3.6647,-3.6606,-3.6642,-3.6652,-3.6662,-3.6675,-3.6409,-3.6656,-3.6655,-3.6655,-3.6654,-3.6653,0,-3.6286,-3.6298,-3.6357,-3.6408,-3.6459,-3.641,-3.6446,-3.6492,-3.6563,-3.6592,-3.6642,-3.6722,-3.6784,-3.6787,-3.6846,-3.6895,-3.6876,-3.6912,-3.6909,-3.6913,-3.6708,-3.6681,-3.6927,-3.6927,-3.6926,-3.6926,-3.6926,-3.6926,-3.6426,-3.6533,-3.6523,-3.6641,-3.6652,-3.673,-3.6755,-3.6787,-3.6809,-3.6901,-3.6953,-3.6953,-3.6972,-3.7031,-3.7086,-3.7085,-3.711,-3.7154,-3.7146,-3.6955,-3.6928,-3.6902,-3.6876,-3.7159,-3.716,-3.7346,-3.7348,-3.7349]},{"header":{"parameterUnit":"m.s-1","parameterCategory":1,"la1":30.2991,"la2":30.254,"lo1":-89.0895,"lo2":-89.0444,"dy":0.0017,"dx":0.0017,"nx":28,"ny":28,"refTime":"2025-09-07T09:00:00:Z","depth":0,"parameterNumber":3,"parameterNumberName":"V-component_of_WINDS"},"data":[0,0,0,0,0,0,0,0,0,0,0,0,0,0,0,0,0,0,0,0,0,0,0,0,0,0,0,0,0,0,0,0,0,0,0,0,0,0,0,0,0,0,0,0,0,0,0,0,0,0,0,0,0,0,0,0,0,0,-6.4693,-6.4694,0,-6.4762,-6.4763,-6.4764,-6.4668,-6.4665,-6.4662,-6.4658,-6.4724,-6.4729,-6.4734,0,0,0,0,0,0,0,0,0,0,0,0,0,-6.4474,-6.4479,-6.4693,-6.4694,-6.4695,-6.4762,-6.4763,-6.4764,-6.4669,-6.4665,-6.4661,-6.4657,-6.4722,-6.4728,-6.4734,0,0,0,0,0,0,0,0,0,0,0,0,0,-6.4559,-6.448,-6.4693,-6.4656,-6.4653,-6.4762,-6.4763,-6.4764,-6.467,-6.4665,-6.466,-6.4655,-6.4721,-6.4728,-6.4735,-6.4882,0,0,-6.4757,-6.4761,0,0,0,0,0,0,0,0,-6.4554,-6.4567,-6.4661,-6.4659,-6.4656,-6.4702,-6.4709,-6.4803,-6.4671,-6.4663,-6.4658,-6.4652,-6.472,-6.4727,-6.4751,-6.4885,-6.4888,-6.4758,-6.4762,-6.4766,-6.4768,0,0,0,0,0,0,0,-6.4548,-6.4563,-6.472,-6.4662,-6.4659,-6.4634,-6.464,-6.4727,-6.4719,-6.4664,-6.4657,-6.4667,-6.4718,-6.4744,-6.4752,-6.4889,-6.4758,-6.4764,-6.4769,-6.4772,-6.5144,-6.5149,0,0,0,0,0,0,-6.4548,-6.4559,-6.4718,-6.4722,-6.4592,-6.4642,-6.4649,-6.4692,-6.4718,-6.4717,-6.4671,-6.4662,-6.4734,-6.4744,-6.4754,-6.4926,-6.4766,-6.4772,-6.4777,-6.5138,-6.5145,-6.5151,0,0,0,0,0,0,-6.4543,-6.4563,-6.4715,-6.4639,-6.4656,-6.4651,-6.47,-6.4696,-6.4722,-6.4724,-6.4721,-6.47,-6.4731,-6.4744,-6.485,-6.4927,-6.4776,-6.4782,-6.5132,-6.514,-6.5148,-6.5273,0,0,0,0,0,0,-6.4537,-6.4562,-6.4619,-6.4641,-6.4661,-6.4813,-6.4705,-6.4701,-6.4736,-6.4725,-6.475,-6.4749,-6.4728,-6.484,-6.4858,-6.4935,-6.4788,-6.5125,-6.5135,-6.5145,-6.5262,-6.5285,-6.5304,0,0,0,0,0,-6.453,-6.4651,-6.4622,-6.4642,-6.4733,-6.4818,-6.4829,-6.4803,-6.4742,-6.4799,-6.4799,-6.4748,-6.4916,-6.4852,-6.4871,-6.4951,-6.512,-6.5132,-6.5144,-6.5253,-6.528,-6.5303,0,0,0,0,0,0,-6.4637,-6.4653,-6.4622,-6.4754,-6.4785,-6.4801,-6.4872,-6.4833,-6.4881,-6.4868,-6.4833,-6.4839,-6.4953,-6.4963,-6.4891,-6.5093,-6.5008,-6.5024,-6.5083,-6.511,-6.513,-6.5125,-6.4794,0,0,0,0,0,-6.4676,-6.4745,-6.4755,-6.4871,-6.4888,-6.4878,-6.4914,-6.4891,-6.4921,-6.4934,-6.4942,-6.4972,-6.5031,-6.5071,-6.5125,-6.5263,-6.5266,-6.5327,-6.5348,-6.5365,-6.538,-6.5452,-6.5479,-6.5191,-6.5191,-6.5191,0,0,-6.4757,-6.4775,-6.482,-6.4892,-6.4914,-6.4985,-6.4889,-6.4968,-6.502,-6.4945,-6.5047,-6.5054,-6.5084,-6.5207,-6.5261,-6.5218,-6.546,-6.5381,-6.5395,-6.54,-6.5467,-6.5494,-6.5518,-6.5199,-6.5198,-6.5197,0,0,-6.4941,-6.4962,-6.506,-6.5084,-6.5118,-6.511,-6.5134,-6.5156,-6.5158,-6.526,-6.5205,-6.5264,-6.5367,-6.5391,-6.5417,-6.5609,-6.5563,-6.5627,-6.5736,-6.5806,-6.5829,-6.5849,-6.5916,-6.5941,-6.5642,-6.5642,-6.5642,0,-6.5037,-6.5143,-6.5115,-6.5198,-6.523,-6.5167,-6.5265,-6.5288,-6.5338,-6.5361,-6.5313,-6.544,-6.5456,-6.5583,-6.563,-6.5653,-6.5677,-6.5624,-6.5828,-6.5848,-6.5866,-6.593,-6.5955,-6.565,-6.5649,-6.5648,-6.5647,0,-6.5259,-6.5333,-6.5408,-6.5459,-6.5499,-6.559,-6.5573,-6.5617,-6.5591,-6.5587,-6.569,-6.5708,-6.5764,-6.5792,-6.5767,-6.5915,-6.5887,-6.5835,-6.5747,-6.5902,-6.5961,-6.5985,-6.5661,-6.5658,-6.5656,-6.5654,0,0,-6.5512,-6.5546,-6.5574,-6.5596,-6.5629,-6.5684,-6.577,-6.5827,-6.5865,-6.5901,-6.5971,-6.6059,-6.601,-6.6039,-6.6016,-6.6078,-6.6227,-6.6017,-6.6017,-6.6054,-6.6389,-6.6428,-6.6457,-6.6197,-6.6201,-6.6205,-6.6386,0,-6.5695,-6.5846,-6.5822,-6.5967,-6.6034,-6.5974,-6.6049,-6.6076,-6.6075,-6.613,-6.6127,-6.619,-6.6121,-6.6138,-6.6197,-6.6197,-6.6293,-6.6183,-6.626,-6.6263,-6.6254,-6.6488,-6.653,-6.67,-6.6409,-6.6413,-6.6416,0,-6.5929,-6.5975,-6.6127,-6.6148,-6.6175,-6.6243,-6.6292,-6.6346,-6.6374,-6.6369,-6.6402,-6.6366,-6.645,-6.6362,-6.6475,-6.6401,-6.643,-6.6435,-6.6441,-6.6446,-6.6348,-6.6499,-6.6754,-6.6779,-6.6452,-6.6449,-6.6447,0,-6.6097,-6.6197,-6.63,-6.6321,-6.6348,-6.6397,-6.641,-6.6434,-6.6469,-6.6511,-6.6533,-6.6584,-6.6612,-6.6651,-6.663,-6.6568,-6.6747,-6.6657,-6.6743,-6.6744,-6.6783,-6.6781,-6.7045,-6.6804,-6.6803,-6.6803,-6.6802,0,-6.6303,-6.6398,-6.6376,-6.644,-6.6543,-6.6514,-6.6617,-6.6623,-6.6644,-6.6706,-6.6657,-6.6716,-6.6685,-6.6741,-6.6724,-6.682,-6.6833,-6.683,-6.6824,-6.6834,-6.6834,-6.6852,-6.6839,-6.681,-6.6808,-6.6807,-6.6806,0,-6.6509,-6.6498,-6.6606,-6.6624,-6.663,-6.6706,-6.6719,-6.6778,-6.6772,-6.6851,-6.6868,-6.686,-6.6923,-6.6906,-6.6974,-6.6963,-6.7083,-6.7063,-6.7074,-6.7069,-6.7155,-6.7147,-6.744,-6.7476,-6.7213,-6.7215,-6.7217,0,-6.6641,-6.6712,-6.6738,-6.6776,-6.6794,-6.6857,-6.6893,-6.6866,-6.6905,-6.6942,-6.6995,-6.7055,-6.71,-6.7204,-6.7202,-6.7254,-6.7234,-6.7333,-6.7241,-6.7248,-6.7234,-6.723,-6.7236,-6.7351,-6.7354,-6.7356,-6.7358,0,-6.6876,-6.6867,-6.6921,-6.6974,-6.7018,-6.7057,-6.7092,-6.7126,-6.7101,-6.7147,-6.7212,-6.7248,-6.7317,-6.7376,-6.7423,-6.7434,-6.7392,-6.7388,-6.741,-6.742,-6.7423,-6.7422,-6.7123,-6.7381,-6.7379,-6.7377,-6.7376,-6.7375,-6.7048,-6.7108,-6.7135,-6.7197,-6.722,-6.7254,-6.7309,-6.7311,-6.7365,-6.7421,-6.7401,-6.7475,-6.75,-6.7558,-6.7576,-6.7632,-6.7594,-6.7626,-6.7634,-6.7643,-6.7653,-6.7415,-6.764,-6.7639,-6.7639,-6.7638,-6.7638,0,-6.7279,-6.7294,-6.7351,-6.7401,-6.7449,-6.7407,-6.7443,-6.7485,-6.7551,-6.7578,-6.7625,-6.7698,-6.7755,-6.7758,-6.781,-6.7854,-6.7836,-6.7868,-6.7864,-6.7867,-6.7685,-6.766,-6.7882,-6.7882,-6.7882,-6.7882,-6.7882,-6.7882,-6.7405,-6.7505,-6.7499,-6.7609,-6.7622,-6.7695,-6.7719,-6.7749,-6.777,-6.7855,-6.7902,-6.7904,-6.7921,-6.7974,-6.8023,-6.8023,-6.8044,-6.8084,-6.8076,-6.7905,-6.788,-6.7857,-6.7833,-6.8089,-6.8089,-6.8253,-6.8255,-6.8256]}]]